Time,TemperatureF,DewpointF,PressureIn,WindDirection,WindDirectionDegrees,WindSpeedMPH,WindSpeedGustMPH,Humidity,HourlyPrecipIn,Conditions,Clouds,dailyrainin,SoftwareType,DateUTC
2013-06-16 00:00:00,72.7,67.3,29.86,WNW,286,11.7,-999.0,82,0.00,,,0.00,SSEC-RIG,2013-06-16 05:00:00,
2013-06-16 00:05:00,72.6,67.1,29.86,WNW,285,11.9,-999.0,82,0.00,,,0.00,SSEC-RIG,2013-06-16 05:05:00,
2013-06-16 00:10:00,72.5,67.1,29.86,WNW,286,11.5,-999.0,82,0.00,,,0.00,SSEC-RIG,2013-06-16 05:10:00,
2013-06-16 00:15:00,72.4,67.1,29.86,WNW,285,10.2,-999.0,82,0.00,,,0.00,SSEC-RIG,2013-06-16 05:15:00,
2013-06-16 00:25:00,72.2,67.2,29.86,WNW,300,9.0,-999.0,83,0.00,,,0.00,SSEC-RIG,2013-06-16 05:25:00,
2013-06-16 00:30:00,72.2,67.0,29.86,WNW,287,10.7,-999.0,83,0.00,,,0.00,SSEC-RIG,2013-06-16 05:30:00,
2013-06-16 00:40:00,71.9,67.2,29.86,West,276,7.1,-999.0,84,0.00,,,0.00,SSEC-RIG,2013-06-16 05:40:00,
2013-06-16 00:45:00,71.7,67.4,29.86,West,277,7.8,-999.0,86,0.00,,,0.00,SSEC-RIG,2013-06-16 05:45:00,
2013-06-16 00:50:00,71.5,67.5,29.86,West,276,9.2,-999.0,86,0.00,,,0.00,SSEC-RIG,2013-06-16 05:50:00,
2013-06-16 00:55:00,71.4,67.5,29.86,West,274,6.1,-999.0,86,0.00,,,0.00,SSEC-RIG,2013-06-16 05:55:00,
2013-06-16 01:00:00,71.3,67.5,29.86,West,277,7.8,-999.0,87,0.00,,,0.00,SSEC-RIG,2013-06-16 06:00:00,
2013-06-16 01:05:00,71.3,67.5,29.86,West,272,8.9,-999.0,87,0.00,,,0.00,SSEC-RIG,2013-06-16 06:05:00,
2013-06-16 01:10:00,71.2,67.6,29.86,West,270,6.3,-999.0,87,0.00,,,0.00,SSEC-RIG,2013-06-16 06:10:00,
2013-06-16 01:15:00,71.1,67.5,29.86,West,274,7.3,-999.0,87,0.00,,,0.00,SSEC-RIG,2013-06-16 06:15:00,
2013-06-16 01:20:00,71.2,67.4,29.85,West,272,8.3,-999.0,87,0.00,,,0.00,SSEC-RIG,2013-06-16 06:20:00,
2013-06-16 01:25:00,71.2,67.5,29.85,West,265,8.5,-999.0,87,0.00,,,0.00,SSEC-RIG,2013-06-16 06:25:00,
2013-06-16 01:30:00,71.2,67.5,29.85,West,276,9.2,-999.0,87,0.00,,,0.00,SSEC-RIG,2013-06-16 06:30:00,
2013-06-16 01:35:00,71.2,67.4,29.85,WNW,286,10.0,-999.0,87,0.00,,,0.00,SSEC-RIG,2013-06-16 06:35:00,
2013-06-16 01:40:00,71.2,67.5,29.85,West,278,9.1,-999.0,87,0.00,,,0.00,SSEC-RIG,2013-06-16 06:40:00,
2013-06-16 01:45:00,71.2,67.5,29.85,West,262,11.2,18.1,87,0.00,,,0.00,SSEC-RIG,2013-06-16 06:45:00,
2013-06-16 01:50:00,70.9,67.7,29.84,West,266,10.2,-999.0,89,0.00,,,0.00,SSEC-RIG,2013-06-16 06:50:00,
2013-06-16 01:55:00,70.6,67.7,29.84,West,279,8.1,-999.0,90,0.00,,,0.00,SSEC-RIG,2013-06-16 06:55:00,
2013-06-16 02:00:00,70.5,67.7,29.85,West,261,6.4,-999.0,90,0.00,,,0.00,SSEC-RIG,2013-06-16 07:00:00,
2013-06-16 02:05:00,70.0,67.7,29.85,WSW,249,11.2,16.2,91,0.00,,,0.00,SSEC-RIG,2013-06-16 07:05:00,
2013-06-16 02:10:00,69.8,68.0,29.85,West,278,8.1,-999.0,93,0.00,,,0.00,SSEC-RIG,2013-06-16 07:10:00,
2013-06-16 02:15:00,69.8,68.2,29.85,West,261,8.4,-999.0,94,0.01,,,0.01,SSEC-RIG,2013-06-16 07:15:00,
2013-06-16 02:20:00,69.8,68.2,29.85,West,275,7.5,-999.0,93,0.00,,,0.01,SSEC-RIG,2013-06-16 07:20:00,
2013-06-16 02:25:00,69.6,68.1,29.85,West,279,9.1,-999.0,94,0.00,,,0.01,SSEC-RIG,2013-06-16 07:25:00,
2013-06-16 02:30:00,69.5,67.8,29.85,West,281,11.1,-999.0,93,0.00,,,0.01,SSEC-RIG,2013-06-16 07:30:00,
2013-06-16 02:35:00,69.5,67.6,29.84,West,271,9.5,-999.0,92,0.00,,,0.01,SSEC-RIG,2013-06-16 07:35:00,
2013-06-16 02:40:00,69.5,67.5,29.85,West,265,8.5,-999.0,92,0.00,,,0.01,SSEC-RIG,2013-06-16 07:40:00,
2013-06-16 02:45:00,69.4,67.5,29.85,West,267,7.4,-999.0,93,0.00,,,0.01,SSEC-RIG,2013-06-16 07:45:00,
2013-06-16 02:50:00,69.3,67.5,29.85,West,276,6.8,-999.0,93,0.00,,,0.01,SSEC-RIG,2013-06-16 07:50:00,
2013-06-16 03:00:00,69.1,66.9,29.85,West,271,9.0,-999.0,92,0.00,,,0.01,SSEC-RIG,2013-06-16 08:00:00,
2013-06-16 03:05:00,69.1,67.0,29.85,West,262,7.8,-999.0,92,0.00,,,0.01,SSEC-RIG,2013-06-16 08:05:00,
2013-06-16 03:10:00,68.8,67.1,29.85,West,261,7.9,-999.0,93,0.00,,,0.01,SSEC-RIG,2013-06-16 08:10:00,
2013-06-16 03:15:00,68.7,66.4,29.85,West,272,8.2,-999.0,91,0.00,,,0.01,SSEC-RIG,2013-06-16 08:15:00,
2013-06-16 03:20:00,68.6,65.8,29.84,West,268,10.6,-999.0,90,0.00,,,0.01,SSEC-RIG,2013-06-16 08:20:00,
2013-06-16 03:25:00,68.5,65.6,29.84,West,273,8.5,-999.0,90,0.00,,,0.01,SSEC-RIG,2013-06-16 08:25:00,
2013-06-16 03:30:00,68.3,65.5,29.84,West,268,7.8,-999.0,90,0.00,,,0.01,SSEC-RIG,2013-06-16 08:30:00,
2013-06-16 03:35:00,68.3,65.2,29.84,West,277,11.5,17.7,89,0.00,,,0.01,SSEC-RIG,2013-06-16 08:35:00,
2013-06-16 03:40:00,68.2,65.2,29.84,West,281,11.8,-999.0,89,0.00,,,0.01,SSEC-RIG,2013-06-16 08:40:00,
2013-06-16 03:50:00,68.2,65.0,29.84,West,277,13.3,17.2,88,0.00,,,0.01,SSEC-RIG,2013-06-16 08:50:00,
2013-06-16 03:55:00,68.2,64.9,29.85,West,281,14.1,16.0,88,0.00,,,0.01,SSEC-RIG,2013-06-16 08:55:00,
2013-06-16 04:00:00,68.2,64.8,29.85,West,279,14.1,17.6,88,0.00,,,0.01,SSEC-RIG,2013-06-16 09:00:00,
2013-06-16 04:05:00,68.2,64.8,29.84,WNW,282,14.6,17.8,88,0.00,,,0.01,SSEC-RIG,2013-06-16 09:05:00,
2013-06-16 04:10:00,68.1,64.8,29.84,WNW,284,13.8,17.8,88,0.00,,,0.01,SSEC-RIG,2013-06-16 09:10:00,
2013-06-16 04:15:00,68.1,64.8,29.85,WNW,283,14.3,16.1,88,0.00,,,0.01,SSEC-RIG,2013-06-16 09:15:00,
2013-06-16 04:20:00,67.9,64.8,29.85,WNW,285,13.8,16.3,89,0.00,,,0.01,SSEC-RIG,2013-06-16 09:20:00,
2013-06-16 04:25:00,67.9,64.9,29.85,WNW,287,12.9,-999.0,89,0.00,,,0.01,SSEC-RIG,2013-06-16 09:25:00,
2013-06-16 04:30:00,67.9,64.8,29.86,WNW,282,12.0,-999.0,89,0.00,,,0.01,SSEC-RIG,2013-06-16 09:30:00,
2013-06-16 04:35:00,67.7,64.9,29.86,West,279,12.4,-999.0,90,0.00,,,0.01,SSEC-RIG,2013-06-16 09:35:00,
2013-06-16 04:40:00,67.6,64.9,29.86,West,277,12.1,-999.0,90,0.00,,,0.01,SSEC-RIG,2013-06-16 09:40:00,
2013-06-16 04:45:00,67.6,64.8,29.86,West,276,12.9,-999.0,90,0.00,,,0.01,SSEC-RIG,2013-06-16 09:45:00,
2013-06-16 04:50:00,67.6,64.8,29.86,West,278,13.2,-999.0,90,0.00,,,0.01,SSEC-RIG,2013-06-16 09:50:00,
2013-06-16 05:00:00,67.5,64.9,29.86,West,280,13.8,-999.0,90,0.00,,,0.01,SSEC-RIG,2013-06-16 10:00:00,
2013-06-16 05:05:00,67.5,64.9,29.86,WNW,282,13.6,-999.0,90,0.00,,,0.01,SSEC-RIG,2013-06-16 10:05:00,
2013-06-16 05:10:00,67.4,64.9,29.86,WNW,285,13.4,-999.0,91,0.00,,,0.01,SSEC-RIG,2013-06-16 10:10:00,
2013-06-16 05:15:00,67.3,64.9,29.87,WNW,290,12.2,-999.0,91,0.00,,,0.01,SSEC-RIG,2013-06-16 10:15:00,
2013-06-16 05:20:00,67.6,65.1,29.87,WNW,292,13.0,17.0,91,0.00,,,0.01,SSEC-RIG,2013-06-16 10:20:00,
2013-06-16 05:25:00,67.6,65.1,29.87,WNW,292,13.1,16.7,91,0.00,,,0.01,SSEC-RIG,2013-06-16 10:25:00,
2013-06-16 05:30:00,67.7,65.2,29.87,WNW,293,12.8,16.7,91,0.00,,,0.01,SSEC-RIG,2013-06-16 10:30:00,
2013-06-16 05:35:00,67.7,65.3,29.87,WNW,298,12.0,16.4,91,0.00,,,0.01,SSEC-RIG,2013-06-16 10:35:00,
2013-06-16 05:40:00,67.7,65.4,29.87,NW,304,11.4,-999.0,91,0.00,,,0.01,SSEC-RIG,2013-06-16 10:40:00,
2013-06-16 05:45:00,67.8,65.4,29.88,WNW,302,13.2,-999.0,91,0.00,,,0.01,SSEC-RIG,2013-06-16 10:45:00,
2013-06-16 05:50:00,67.8,65.5,29.88,NW,304,13.0,16.4,91,0.00,,,0.01,SSEC-RIG,2013-06-16 10:50:00,
2013-06-16 05:55:00,67.8,65.4,29.88,WNW,303,12.5,-999.0,91,0.00,,,0.01,SSEC-RIG,2013-06-16 10:55:00,
2013-06-16 06:00:00,67.8,65.5,29.88,NW,305,12.4,-999.0,91,0.00,,,0.01,SSEC-RIG,2013-06-16 11:00:00,
2013-06-16 06:05:00,67.8,65.5,29.88,NW,306,11.1,-999.0,91,0.00,,,0.01,SSEC-RIG,2013-06-16 11:05:00,
2013-06-16 06:10:00,67.8,65.5,29.88,NW,309,10.3,-999.0,91,0.00,,,0.01,SSEC-RIG,2013-06-16 11:10:00,
2013-06-16 06:15:00,67.8,65.5,29.88,NW,306,10.0,-999.0,91,0.00,,,0.01,SSEC-RIG,2013-06-16 11:15:00,
2013-06-16 06:20:00,67.9,65.5,29.88,NW,304,10.9,-999.0,91,0.00,,,0.01,SSEC-RIG,2013-06-16 11:20:00,
2013-06-16 06:25:00,68.0,65.5,29.88,NW,307,9.7,-999.0,91,0.00,,,0.01,SSEC-RIG,2013-06-16 11:25:00,
2013-06-16 06:30:00,68.0,65.4,29.88,NW,305,10.5,-999.0,90,0.00,,,0.01,SSEC-RIG,2013-06-16 11:30:00,
2013-06-16 06:35:00,68.1,65.5,29.88,NW,310,10.8,-999.0,90,0.00,,,0.01,SSEC-RIG,2013-06-16 11:35:00,
2013-06-16 06:40:00,68.1,65.5,29.88,NW,305,11.7,-999.0,90,0.00,,,0.01,SSEC-RIG,2013-06-16 11:40:00,
2013-06-16 06:45:00,68.1,65.5,29.88,NW,307,10.8,16.4,90,0.00,,,0.01,SSEC-RIG,2013-06-16 11:45:00,
2013-06-16 06:50:00,68.1,65.4,29.88,NW,316,9.7,-999.0,90,0.00,,,0.01,SSEC-RIG,2013-06-16 11:50:00,
2013-06-16 06:55:00,68.2,65.4,29.89,NW,313,8.8,-999.0,90,0.00,,,0.01,SSEC-RIG,2013-06-16 11:55:00,
2013-06-16 07:00:00,68.3,65.4,29.89,NW,311,9.3,-999.0,90,0.00,,,0.01,SSEC-RIG,2013-06-16 12:00:00,
2013-06-16 07:05:00,68.4,65.5,29.89,NW,316,7.6,-999.0,90,0.00,,,0.01,SSEC-RIG,2013-06-16 12:05:00,
2013-06-16 07:10:00,68.4,65.5,29.89,NW,311,10.4,-999.0,90,0.00,,,0.01,SSEC-RIG,2013-06-16 12:10:00,
2013-06-16 07:15:00,68.5,65.6,29.89,NW,310,9.2,-999.0,89,0.00,,,0.01,SSEC-RIG,2013-06-16 12:15:00,
2013-06-16 07:20:00,68.6,65.4,29.89,NW,306,11.6,17.3,88,0.00,,,0.01,SSEC-RIG,2013-06-16 12:20:00,
2013-06-16 07:25:00,68.7,65.4,29.89,NW,312,13.6,17.4,88,0.00,,,0.01,SSEC-RIG,2013-06-16 12:25:00,
2013-06-16 07:30:00,68.7,65.3,29.90,NW,315,12.5,-999.0,88,0.00,,,0.01,SSEC-RIG,2013-06-16 12:30:00,
2013-06-16 07:35:00,68.8,65.4,29.90,NW,313,9.2,-999.0,88,0.00,,,0.01,SSEC-RIG,2013-06-16 12:35:00,
2013-06-16 07:40:00,68.9,65.2,29.89,NW,315,7.9,-999.0,87,0.00,,,0.01,SSEC-RIG,2013-06-16 12:40:00,
2013-06-16 07:45:00,68.9,65.0,29.89,NW,316,9.1,-999.0,86,0.00,,,0.01,SSEC-RIG,2013-06-16 12:45:00,
2013-06-16 07:50:00,69.2,65.2,29.90,NW,312,6.4,-999.0,86,0.00,,,0.01,SSEC-RIG,2013-06-16 12:50:00,
2013-06-16 07:55:00,69.7,65.2,29.89,NW,322,5.0,-999.0,85,0.00,,,0.01,SSEC-RIG,2013-06-16 12:55:00,
2013-06-16 08:00:00,69.7,65.3,29.89,NW,326,4.3,-999.0,85,0.00,,,0.01,SSEC-RIG,2013-06-16 13:00:00,
2013-06-16 08:05:00,69.6,65.0,29.89,NNW,330,7.8,-999.0,84,0.00,,,0.01,SSEC-RIG,2013-06-16 13:05:00,
2013-06-16 08:10:00,69.7,64.8,29.89,NNW,327,5.5,-999.0,84,0.00,,,0.01,SSEC-RIG,2013-06-16 13:10:00,
2013-06-16 08:15:00,69.6,64.2,29.89,NW,322,8.6,-999.0,82,0.00,,,0.01,SSEC-RIG,2013-06-16 13:15:00,
2013-06-16 08:20:00,69.5,64.3,29.89,NW,319,8.1,-999.0,83,0.00,,,0.01,SSEC-RIG,2013-06-16 13:20:00,
2013-06-16 08:25:00,69.5,64.4,29.89,NW,317,7.6,-999.0,83,0.00,,,0.01,SSEC-RIG,2013-06-16 13:25:00,
2013-06-16 08:30:00,69.8,63.7,29.89,NW,324,9.2,-999.0,80,0.00,,,0.01,SSEC-RIG,2013-06-16 13:30:00,
2013-06-16 08:35:00,70.0,63.8,29.89,NW,322,8.6,-999.0,80,0.00,,,0.01,SSEC-RIG,2013-06-16 13:35:00,
2013-06-16 08:40:00,70.2,63.4,29.89,NW,316,8.8,-999.0,78,0.00,,,0.01,SSEC-RIG,2013-06-16 13:40:00,
2013-06-16 08:45:00,70.5,63.4,29.89,NW,317,8.3,-999.0,78,0.00,,,0.01,SSEC-RIG,2013-06-16 13:45:00,
2013-06-16 08:50:00,70.8,63.4,29.90,WNW,303,7.5,-999.0,76,0.00,,,0.01,SSEC-RIG,2013-06-16 13:50:00,
2013-06-16 08:55:00,71.1,63.1,29.90,NW,305,7.1,-999.0,75,0.00,,,0.01,SSEC-RIG,2013-06-16 13:55:00,
2013-06-16 09:00:00,71.5,62.7,29.90,NW,307,6.5,-999.0,73,0.00,,,0.01,SSEC-RIG,2013-06-16 14:00:00,
2013-06-16 09:05:00,71.9,62.0,29.90,NW,309,7.1,-999.0,70,0.00,,,0.01,SSEC-RIG,2013-06-16 14:05:00,
2013-06-16 09:15:00,72.2,60.9,29.90,NW,307,8.4,-999.0,67,0.00,,,0.01,SSEC-RIG,2013-06-16 14:15:00,
2013-06-16 09:20:00,72.4,60.5,29.90,NW,315,7.7,-999.0,65,0.00,,,0.01,SSEC-RIG,2013-06-16 14:20:00,
2013-06-16 09:25:00,72.9,60.5,29.90,NW,310,7.0,-999.0,64,0.00,,,0.01,SSEC-RIG,2013-06-16 14:25:00,
2013-06-16 09:35:00,73.6,58.0,29.90,NW,314,6.6,-999.0,57,0.00,,,0.01,SSEC-RIG,2013-06-16 14:35:00,
2013-06-16 09:40:00,73.6,58.3,29.90,NW,321,5.9,-999.0,58,0.00,,,0.01,SSEC-RIG,2013-06-16 14:40:00,
2013-06-16 09:45:00,73.7,57.8,29.90,NW,325,6.1,-999.0,57,0.00,,,0.01,SSEC-RIG,2013-06-16 14:45:00,
2013-06-16 09:50:00,74.2,58.7,29.90,NNW,332,6.8,-999.0,58,0.00,,,0.01,SSEC-RIG,2013-06-16 14:50:00,
2013-06-16 09:55:00,73.9,57.5,29.90,NW,326,8.2,-999.0,56,0.00,,,0.01,SSEC-RIG,2013-06-16 14:55:00,
2013-06-16 10:00:00,74.0,58.0,29.90,NW,318,7.5,-999.0,57,0.00,,,0.01,SSEC-RIG,2013-06-16 15:00:00,
2013-06-16 10:05:00,74.4,58.6,29.90,NNW,337,6.6,-999.0,57,0.00,,,0.01,SSEC-RIG,2013-06-16 15:05:00,
2013-06-16 10:10:00,74.5,58.1,29.89,NW,320,6.4,-999.0,56,0.00,,,0.01,SSEC-RIG,2013-06-16 15:10:00,
2013-06-16 10:20:00,74.5,58.2,29.89,NNW,332,8.2,-999.0,56,0.00,,,0.01,SSEC-RIG,2013-06-16 15:20:00,
2013-06-16 10:25:00,74.6,57.1,29.89,NNW,330,7.5,-999.0,54,0.00,,,0.01,SSEC-RIG,2013-06-16 15:25:00,
2013-06-16 10:30:00,75.1,56.7,29.89,NNW,344,7.2,-999.0,52,0.00,,,0.01,SSEC-RIG,2013-06-16 15:30:00,
2013-06-16 10:35:00,75.3,55.8,29.89,NNW,348,8.4,-999.0,50,0.00,,,0.01,SSEC-RIG,2013-06-16 15:35:00,
2013-06-16 10:40:00,75.4,56.1,29.89,NNW,330,8.8,-999.0,50,0.00,,,0.01,SSEC-RIG,2013-06-16 15:40:00,
2013-06-16 10:50:00,75.8,56.0,29.89,NNW,332,7.9,-999.0,49,0.00,,,0.01,SSEC-RIG,2013-06-16 15:50:00,
2013-06-16 10:55:00,75.6,55.5,29.89,NNW,327,10.6,-999.0,49,0.00,,,0.01,SSEC-RIG,2013-06-16 15:55:00,
2013-06-16 11:00:00,75.8,55.0,29.89,NNW,340,9.5,-999.0,48,0.00,,,0.01,SSEC-RIG,2013-06-16 16:00:00,
2013-06-16 11:05:00,76.2,55.0,29.89,North,352,8.3,-999.0,47,0.00,,,0.01,SSEC-RIG,2013-06-16 16:05:00,
2013-06-16 11:10:00,76.1,55.1,29.89,NNW,346,7.1,-999.0,47,0.00,,,0.01,SSEC-RIG,2013-06-16 16:10:00,
2013-06-16 11:17:00,76.6,56.6,29.89,NNW,342,6.8,-999.0,49,0.00,,,0.01,SSEC-RIG,2013-06-16 16:17:00,
2013-06-16 11:25:00,76.9,55.7,29.89,NNW,327,8.5,-999.0,47,0.00,,,0.01,SSEC-RIG,2013-06-16 16:25:00,
2013-06-16 11:30:00,76.4,54.6,29.90,NW,317,11.9,-999.0,46,0.00,,,0.01,SSEC-RIG,2013-06-16 16:30:00,
2013-06-16 11:40:00,77.3,54.4,29.90,NW,323,7.3,-999.0,44,0.00,,,0.01,SSEC-RIG,2013-06-16 16:40:00,
2013-06-16 11:45:00,77.1,53.3,29.90,NW,324,11.5,-999.0,43,0.00,,,0.01,SSEC-RIG,2013-06-16 16:45:00,
2013-06-16 11:50:00,77.1,54.4,29.90,NW,310,8.1,-999.0,45,0.00,,,0.01,SSEC-RIG,2013-06-16 16:50:00,
2013-06-16 11:55:00,77.5,52.0,29.90,NNW,329,11.5,-999.0,40,0.00,,,0.01,SSEC-RIG,2013-06-16 16:55:00,
2013-06-16 12:00:00,77.4,53.2,29.90,NW,324,8.6,-999.0,42,0.00,,,0.01,SSEC-RIG,2013-06-16 17:00:00,
2013-06-16 12:05:00,77.5,52.5,29.90,NW,312,10.7,-999.0,41,0.00,,,0.01,SSEC-RIG,2013-06-16 17:05:00,
2013-06-16 12:10:00,77.6,51.0,29.90,WNW,302,10.6,-999.0,39,0.00,,,0.01,SSEC-RIG,2013-06-16 17:10:00,
2013-06-16 12:15:00,78.2,50.5,29.90,NW,322,8.6,-999.0,37,0.00,,,0.01,SSEC-RIG,2013-06-16 17:15:00,
2013-06-16 12:20:00,77.9,51.0,29.90,NW,311,9.4,-999.0,38,0.00,,,0.01,SSEC-RIG,2013-06-16 17:20:00,
2013-06-16 12:25:00,78.4,50.8,29.90,NW,318,7.5,-999.0,37,0.00,,,0.01,SSEC-RIG,2013-06-16 17:25:00,
2013-06-16 12:30:00,78.6,51.4,29.89,NW,326,9.8,-999.0,38,0.00,,,0.01,SSEC-RIG,2013-06-16 17:30:00,
2013-06-16 12:35:00,78.5,46.4,29.89,NW,308,12.4,17.8,32,0.00,,,0.01,SSEC-RIG,2013-06-16 17:35:00,
2013-06-16 12:40:00,78.5,49.1,29.89,NNW,329,9.5,-999.0,35,0.00,,,0.01,SSEC-RIG,2013-06-16 17:40:00,
2013-06-16 12:45:00,79.0,47.1,29.89,NW,305,11.4,16.7,32,0.00,,,0.01,SSEC-RIG,2013-06-16 17:45:00,
2013-06-16 12:50:00,79.1,47.0,29.89,WNW,302,10.9,16.3,32,0.00,,,0.01,SSEC-RIG,2013-06-16 17:50:00,
2013-06-16 12:55:00,78.8,47.5,29.89,NW,325,10.6,16.6,33,0.00,,,0.01,SSEC-RIG,2013-06-16 17:55:00,
2013-06-16 13:00:00,78.9,48.0,29.89,NNW,328,11.3,-999.0,33,0.00,,,0.01,SSEC-RIG,2013-06-16 18:00:00,
2013-06-16 13:05:00,79.2,47.6,29.89,WNW,301,13.2,16.8,32,0.00,,,0.01,SSEC-RIG,2013-06-16 18:05:00,
2013-06-16 13:10:00,78.8,48.1,29.89,WNW,299,10.9,-999.0,33,0.00,,,0.01,SSEC-RIG,2013-06-16 18:10:00,
2013-06-16 13:15:00,79.0,48.5,29.90,NW,308,8.9,17.6,34,0.00,,,0.01,SSEC-RIG,2013-06-16 18:15:00,
2013-06-16 13:20:00,79.2,46.9,29.90,NW,311,12.9,16.6,31,0.00,,,0.01,SSEC-RIG,2013-06-16 18:20:00,
2013-06-16 13:25:00,79.1,45.5,29.89,NW,305,12.9,18.1,30,0.00,,,0.01,SSEC-RIG,2013-06-16 18:25:00,
2013-06-16 13:30:00,79.6,45.8,29.89,NNW,332,9.7,-999.0,30,0.00,,,0.01,SSEC-RIG,2013-06-16 18:30:00,
2013-06-16 13:35:00,79.5,45.1,29.90,NW,326,9.1,-999.0,29,0.00,,,0.01,SSEC-RIG,2013-06-16 18:35:00,
2013-06-16 13:45:00,80.1,44.9,29.90,NW,306,10.9,-999.0,28,0.00,,,0.01,SSEC-RIG,2013-06-16 18:45:00,
2013-06-16 13:50:00,79.9,45.5,29.90,NW,312,7.8,-999.0,29,0.00,,,0.01,SSEC-RIG,2013-06-16 18:50:00,
2013-06-16 13:55:00,80.1,46.6,29.89,NNW,328,11.6,16.9,30,0.00,,,0.01,SSEC-RIG,2013-06-16 18:55:00,
2013-06-16 14:00:00,79.8,45.2,29.89,NW,324,10.5,-999.0,29,0.00,,,0.01,SSEC-RIG,2013-06-16 19:00:00,
2013-06-16 14:05:00,79.6,46.1,29.89,NW,320,9.9,-999.0,30,0.00,,,0.01,SSEC-RIG,2013-06-16 19:05:00,
2013-06-16 14:15:00,80.7,46.5,29.89,WNW,292,9.1,19.0,29,0.00,,,0.01,SSEC-RIG,2013-06-16 19:15:00,
2013-06-16 14:20:00,80.3,45.0,29.89,WNW,289,10.6,-999.0,28,0.00,,,0.01,SSEC-RIG,2013-06-16 19:20:00,
2013-06-16 14:25:00,80.7,46.2,29.89,NNW,332,8.2,-999.0,29,0.00,,,0.01,SSEC-RIG,2013-06-16 19:25:00,
2013-06-16 14:30:00,80.4,46.0,29.89,NW,324,13.2,20.0,29,0.00,,,0.01,SSEC-RIG,2013-06-16 19:30:00,
2013-06-16 14:35:00,80.5,45.2,29.89,NW,317,11.8,-999.0,28,0.00,,,0.01,SSEC-RIG,2013-06-16 19:35:00,
2013-06-16 14:40:00,80.3,45.1,29.89,NW,324,11.7,17.2,28,0.00,,,0.01,SSEC-RIG,2013-06-16 19:40:00,
2013-06-16 14:45:00,80.3,45.2,29.89,NW,319,15.2,18.2,28,0.00,,,0.01,SSEC-RIG,2013-06-16 19:45:00,
2013-06-16 14:50:00,79.8,45.1,29.89,NW,309,11.7,-999.0,29,0.00,,,0.01,SSEC-RIG,2013-06-16 19:50:00,
2013-06-16 14:55:00,80.0,45.2,29.89,NW,305,7.6,-999.0,29,0.00,,,0.01,SSEC-RIG,2013-06-16 19:55:00,
2013-06-16 15:00:00,80.3,46.3,29.89,NW,318,9.2,-999.0,30,0.00,,,0.01,SSEC-RIG,2013-06-16 20:00:00,
2013-06-16 15:05:00,80.3,45.9,29.89,NW,320,13.6,18.4,29,0.00,,,0.01,SSEC-RIG,2013-06-16 20:05:00,
2013-06-16 15:10:00,80.1,45.7,29.89,NW,314,8.8,-999.0,29,0.00,,,0.01,SSEC-RIG,2013-06-16 20:10:00,
2013-06-16 15:15:00,80.5,46.2,29.89,WNW,289,8.8,-999.0,29,0.00,,,0.01,SSEC-RIG,2013-06-16 20:15:00,
2013-06-16 15:20:00,80.7,46.0,29.89,West,269,8.7,-999.0,29,0.00,,,0.01,SSEC-RIG,2013-06-16 20:20:00,
2013-06-16 15:25:00,81.3,46.6,29.89,NW,310,6.9,-999.0,29,0.00,,,0.01,SSEC-RIG,2013-06-16 20:25:00,
2013-06-16 15:30:00,80.6,46.1,29.89,NW,323,10.6,-999.0,29,0.00,,,0.01,SSEC-RIG,2013-06-16 20:30:00,
2013-06-16 15:35:00,80.4,46.0,29.89,NW,322,7.3,-999.0,29,0.00,,,0.01,SSEC-RIG,2013-06-16 20:35:00,
2013-06-16 15:40:00,80.6,46.9,29.89,NNW,331,8.2,-999.0,30,0.00,,,0.01,SSEC-RIG,2013-06-16 20:40:00,
2013-06-16 15:45:00,80.5,46.6,29.89,NW,324,11.8,-999.0,30,0.00,,,0.01,SSEC-RIG,2013-06-16 20:45:00,
2013-06-16 15:50:00,80.7,45.8,29.89,NW,305,10.3,-999.0,29,0.00,,,0.01,SSEC-RIG,2013-06-16 20:50:00,
2013-06-16 15:55:00,81.1,45.6,29.89,NNW,327,8.8,-999.0,28,0.00,,,0.01,SSEC-RIG,2013-06-16 20:55:00,
2013-06-16 16:00:00,80.9,46.2,29.89,NW,312,11.4,-999.0,29,0.00,,,0.01,SSEC-RIG,2013-06-16 21:00:00,
2013-06-16 16:05:00,80.3,46.4,29.89,WNW,300,7.4,-999.0,30,0.00,,,0.01,SSEC-RIG,2013-06-16 21:05:00,
2013-06-16 16:10:00,80.8,46.5,29.89,WNW,294,9.6,-999.0,29,0.00,,,0.01,SSEC-RIG,2013-06-16 21:10:00,
2013-06-16 16:15:00,81.6,46.1,29.89,WNW,283,9.7,-999.0,28,0.00,,,0.01,SSEC-RIG,2013-06-16 21:15:00,
2013-06-16 16:20:00,81.5,45.9,29.89,NW,306,9.1,-999.0,28,0.00,,,0.01,SSEC-RIG,2013-06-16 21:20:00,
2013-06-16 16:25:00,81.2,45.6,29.89,NW,320,15.3,19.9,28,0.00,,,0.01,SSEC-RIG,2013-06-16 21:25:00,
2013-06-16 16:35:00,81.8,46.6,29.89,NW,305,7.8,-999.0,29,0.00,,,0.01,SSEC-RIG,2013-06-16 21:35:00,
2013-06-16 16:40:00,81.6,44.7,29.89,NW,304,13.5,19.1,27,0.00,,,0.01,SSEC-RIG,2013-06-16 21:40:00,
2013-06-16 16:45:00,81.5,44.4,29.88,WNW,284,15.1,20.5,26,0.00,,,0.01,SSEC-RIG,2013-06-16 21:45:00,
2013-06-16 16:50:00,81.6,45.2,29.89,WNW,299,13.7,21.7,27,0.00,,,0.01,SSEC-RIG,2013-06-16 21:50:00,
2013-06-16 16:55:00,81.7,44.9,29.89,WNW,299,9.8,-999.0,27,0.00,,,0.01,SSEC-RIG,2013-06-16 21:55:00,
2013-06-16 17:00:00,81.4,44.9,29.88,West,272,13.3,17.5,27,0.00,,,0.01,SSEC-RIG,2013-06-16 22:00:00,
2013-06-16 17:05:00,81.3,44.9,29.88,West,271,8.5,-999.0,27,0.00,,,0.01,SSEC-RIG,2013-06-16 22:05:00,
2013-06-16 17:10:00,81.6,44.9,29.88,WNW,296,12.7,17.5,27,0.00,,,0.01,SSEC-RIG,2013-06-16 22:10:00,
2013-06-16 17:20:00,81.4,44.5,29.88,West,281,14.8,19.0,27,0.00,,,0.01,SSEC-RIG,2013-06-16 22:20:00,
2013-06-16 17:25:00,81.8,45.2,29.88,WNW,296,11.7,18.0,27,0.00,,,0.01,SSEC-RIG,2013-06-16 22:25:00,
2013-06-16 17:30:00,81.0,45.3,29.88,WNW,292,13.2,17.3,28,0.00,,,0.01,SSEC-RIG,2013-06-16 22:30:00,
2013-06-16 17:35:00,80.8,45.3,29.88,WNW,288,10.7,-999.0,28,0.00,,,0.01,SSEC-RIG,2013-06-16 22:35:00,
2013-06-16 17:40:00,81.2,45.7,29.88,WNW,297,10.7,-999.0,28,0.00,,,0.01,SSEC-RIG,2013-06-16 22:40:00,
2013-06-16 17:50:00,81.0,46.5,29.88,WNW,302,11.9,17.7,29,0.00,,,0.01,SSEC-RIG,2013-06-16 22:50:00,
2013-06-16 17:55:00,80.7,45.8,29.88,WNW,299,13.4,16.8,29,0.00,,,0.01,SSEC-RIG,2013-06-16 22:55:00,
2013-06-16 18:00:00,80.8,46.0,29.88,NW,306,11.3,-999.0,29,0.00,,,0.01,SSEC-RIG,2013-06-16 23:00:00,
2013-06-16 18:05:00,80.8,46.2,29.87,WNW,295,13.0,16.7,29,0.00,,,0.01,SSEC-RIG,2013-06-16 23:05:00,
2013-06-16 18:10:00,80.7,46.1,29.87,WNW,292,12.9,16.1,29,0.00,,,0.01,SSEC-RIG,2013-06-16 23:10:00,
2013-06-16 18:15:00,80.7,46.0,29.87,WNW,295,12.2,-999.0,29,0.00,,,0.01,SSEC-RIG,2013-06-16 23:15:00,
2013-06-16 18:20:00,80.7,45.9,29.87,NW,307,12.2,-999.0,29,0.00,,,0.01,SSEC-RIG,2013-06-16 23:20:00,
2013-06-16 18:25:00,80.7,46.0,29.87,NW,307,10.2,-999.0,29,0.00,,,0.01,SSEC-RIG,2013-06-16 23:25:00,
2013-06-16 18:30:00,80.5,46.4,29.87,WNW,295,11.0,-999.0,30,0.00,,,0.01,SSEC-RIG,2013-06-16 23:30:00,
2013-06-16 18:35:00,80.6,46.5,29.87,WNW,296,11.9,-999.0,30,0.00,,,0.01,SSEC-RIG,2013-06-16 23:35:00,
2013-06-16 18:40:00,80.6,46.8,29.87,WNW,292,7.9,-999.0,30,0.00,,,0.01,SSEC-RIG,2013-06-16 23:40:00,
2013-06-16 18:45:00,80.5,46.7,29.87,WNW,294,9.1,-999.0,30,0.00,,,0.01,SSEC-RIG,2013-06-16 23:45:00,
2013-06-16 18:50:00,80.8,47.1,29.87,WNW,294,7.5,-999.0,30,0.00,,,0.01,SSEC-RIG,2013-06-16 23:50:00,
2013-06-16 18:55:00,80.6,47.2,29.87,NW,312,8.4,-999.0,30,0.00,,,0.01,SSEC-RIG,2013-06-16 23:55:00,
2013-06-16 19:00:00,80.8,47.3,29.87,WNW,296,8.2,-999.0,30,0.00,,,0.01,SSEC-RIG,2013-06-17 00:00:00,
2013-06-16 19:05:00,80.6,46.9,29.87,WNW,299,8.8,-999.0,30,0.00,,,0.00,SSEC-RIG,2013-06-17 00:05:00,
2013-06-16 19:10:00,80.3,47.1,29.87,WNW,296,9.9,-999.0,31,0.00,,,0.00,SSEC-RIG,2013-06-17 00:10:00,
2013-06-16 19:15:00,80.1,47.4,29.88,WNW,295,11.1,-999.0,31,0.00,,,0.00,SSEC-RIG,2013-06-17 00:15:00,
2013-06-16 19:20:00,80.0,47.2,29.87,WNW,289,12.9,-999.0,31,0.00,,,0.00,SSEC-RIG,2013-06-17 00:20:00,
2013-06-16 19:25:00,80.0,47.6,29.88,WNW,290,8.3,-999.0,32,0.00,,,0.00,SSEC-RIG,2013-06-17 00:25:00,
2013-06-16 19:30:00,79.9,47.8,29.87,WNW,286,11.5,-999.0,32,0.00,,,0.00,SSEC-RIG,2013-06-17 00:30:00,
2013-06-16 19:40:00,79.5,48.7,29.88,WNW,301,8.7,-999.0,33,0.00,,,0.00,SSEC-RIG,2013-06-17 00:40:00,
2013-06-16 19:45:00,79.4,49.0,29.88,NW,306,5.3,-999.0,34,0.00,,,0.00,SSEC-RIG,2013-06-17 00:45:00,
2013-06-16 19:50:00,79.2,49.1,29.88,NW,308,6.8,-999.0,34,0.00,,,0.00,SSEC-RIG,2013-06-17 00:50:00,
2013-06-16 19:55:00,79.0,49.6,29.88,NW,314,6.8,-999.0,35,0.00,,,0.00,SSEC-RIG,2013-06-17 00:55:00,
2013-06-16 20:00:00,78.8,49.7,29.88,NW,309,6.6,-999.0,36,0.00,,,0.00,SSEC-RIG,2013-06-17 01:00:00,
2013-06-16 20:05:00,78.7,50.0,29.88,NW,307,5.1,-999.0,36,0.00,,,0.00,SSEC-RIG,2013-06-17 01:05:00,
2013-06-16 20:10:00,78.6,50.2,29.88,NW,307,4.7,-999.0,36,0.00,,,0.00,SSEC-RIG,2013-06-17 01:10:00,
2013-06-16 20:15:00,78.4,50.0,29.88,NW,305,6.2,-999.0,36,0.00,,,0.00,SSEC-RIG,2013-06-17 01:15:00,
2013-06-16 20:20:00,78.3,50.0,29.88,NW,307,6.5,-999.0,36,0.00,,,0.00,SSEC-RIG,2013-06-17 01:20:00,
2013-06-16 20:30:00,78.0,50.0,29.88,NW,306,5.8,-999.0,37,0.00,,,0.00,SSEC-RIG,2013-06-17 01:30:00,
2013-06-16 20:35:00,77.9,50.1,29.88,NW,311,4.8,-999.0,37,0.00,,,0.00,SSEC-RIG,2013-06-17 01:35:00,
2013-06-16 20:40:00,77.7,50.1,29.87,NW,314,4.9,-999.0,37,0.00,,,0.00,SSEC-RIG,2013-06-17 01:40:00,
2013-06-16 20:45:00,77.5,50.0,29.87,NW,309,4.0,-999.0,37,0.00,,,0.00,SSEC-RIG,2013-06-17 01:45:00,
2013-06-16 20:50:00,77.5,49.9,29.87,NW,317,4.9,-999.0,37,0.00,,,0.00,SSEC-RIG,2013-06-17 01:50:00,
2013-06-16 21:00:00,77.4,49.9,29.87,WNW,302,6.6,-999.0,37,0.00,,,0.00,SSEC-RIG,2013-06-17 02:00:00,
2013-06-16 21:05:00,77.5,49.4,29.88,WNW,301,6.9,-999.0,37,0.00,,,0.00,SSEC-RIG,2013-06-17 02:05:00,
2013-06-16 21:10:00,77.5,48.9,29.88,WNW,302,7.0,-999.0,36,0.00,,,0.00,SSEC-RIG,2013-06-17 02:10:00,
2013-06-16 21:20:00,77.2,48.9,29.88,WNW,297,7.2,-999.0,36,0.00,,,0.00,SSEC-RIG,2013-06-17 02:20:00,
2013-06-16 21:25:00,77.1,48.6,29.88,WNW,297,7.4,-999.0,36,0.00,,,0.00,SSEC-RIG,2013-06-17 02:25:00,
2013-06-16 21:30:00,77.0,48.4,29.89,WNW,294,7.9,-999.0,36,0.00,,,0.00,SSEC-RIG,2013-06-17 02:30:00,
2013-06-16 21:35:00,76.6,48.4,29.89,WNW,284,8.7,-999.0,36,0.00,,,0.00,SSEC-RIG,2013-06-17 02:35:00,
2013-06-16 21:45:00,77.3,47.3,29.89,West,281,8.8,-999.0,34,0.00,,,0.00,SSEC-RIG,2013-06-17 02:45:00,
2013-06-16 21:50:00,77.2,47.4,29.90,West,279,8.9,-999.0,34,0.00,,,0.00,SSEC-RIG,2013-06-17 02:50:00,
2013-06-16 21:55:00,77.2,47.2,29.90,West,277,9.6,-999.0,34,0.00,,,0.00,SSEC-RIG,2013-06-17 02:55:00,
2013-06-16 22:00:00,77.4,47.1,29.90,West,277,10.1,-999.0,34,0.00,,,0.00,SSEC-RIG,2013-06-17 03:00:00,
2013-06-16 22:05:00,77.6,47.0,29.90,West,277,10.4,-999.0,33,0.00,,,0.00,SSEC-RIG,2013-06-17 03:05:00,
2013-06-16 22:10:00,77.6,47.2,29.90,West,271,9.8,-999.0,34,0.00,,,0.00,SSEC-RIG,2013-06-17 03:10:00,
2013-06-16 22:15:00,77.3,47.8,29.90,West,269,9.3,-999.0,35,0.00,,,0.00,SSEC-RIG,2013-06-17 03:15:00,
2013-06-16 22:20:00,77.2,47.8,29.91,West,265,9.2,-999.0,35,0.00,,,0.00,SSEC-RIG,2013-06-17 03:20:00,
2013-06-16 22:25:00,76.6,48.3,29.91,West,265,10.1,-999.0,36,0.00,,,0.00,SSEC-RIG,2013-06-17 03:25:00,
2013-06-16 22:30:00,76.0,49.1,29.91,West,264,11.4,-999.0,38,0.00,,,0.00,SSEC-RIG,2013-06-17 03:30:00,
2013-06-16 22:35:00,76.4,49.0,29.91,West,265,11.3,-999.0,37,0.00,,,0.00,SSEC-RIG,2013-06-17 03:35:00,
2013-06-16 22:40:00,76.6,48.5,29.90,West,270,11.8,-999.0,37,0.00,,,0.00,SSEC-RIG,2013-06-17 03:40:00,
2013-06-16 22:45:00,76.1,48.3,29.90,West,272,12.2,-999.0,37,0.00,,,0.00,SSEC-RIG,2013-06-17 03:45:00,
2013-06-16 22:50:00,75.8,48.2,29.90,West,273,11.5,-999.0,37,0.00,,,0.00,SSEC-RIG,2013-06-17 03:50:00,
2013-06-16 22:55:00,76.0,47.9,29.90,West,274,11.5,-999.0,36,0.00,,,0.00,SSEC-RIG,2013-06-17 03:55:00,
2013-06-16 23:00:00,75.7,48.0,29.90,West,273,11.9,-999.0,37,0.00,,,0.00,SSEC-RIG,2013-06-17 04:00:00,
2013-06-16 23:05:00,75.5,47.8,29.89,West,271,12.3,-999.0,37,0.00,,,0.00,SSEC-RIG,2013-06-17 04:05:00,
2013-06-16 23:10:00,75.4,47.5,29.89,West,270,11.9,-999.0,37,0.00,,,0.00,SSEC-RIG,2013-06-17 04:10:00,
2013-06-16 23:15:00,75.3,47.2,29.89,West,270,12.3,-999.0,36,0.00,,,0.00,SSEC-RIG,2013-06-17 04:15:00,
2013-06-16 23:20:00,75.1,46.9,29.89,West,272,12.7,-999.0,36,0.00,,,0.00,SSEC-RIG,2013-06-17 04:20:00,
2013-06-16 23:25:00,75.4,46.3,29.89,West,271,12.7,-999.0,35,0.00,,,0.00,SSEC-RIG,2013-06-17 04:25:00,
2013-06-16 23:30:00,75.3,46.3,29.89,West,270,11.5,-999.0,35,0.00,,,0.00,SSEC-RIG,2013-06-17 04:30:00,
2013-06-16 23:35:00,75.0,46.2,29.89,West,266,12.2,-999.0,35,0.00,,,0.00,SSEC-RIG,2013-06-17 04:35:00,
2013-06-16 23:40:00,74.6,46.5,29.89,West,263,12.4,-999.0,36,0.00,,,0.00,SSEC-RIG,2013-06-17 04:40:00,
2013-06-16 23:45:00,74.3,46.6,29.89,West,263,13.6,-999.0,37,0.00,,,0.00,SSEC-RIG,2013-06-17 04:45:00,
2013-06-16 23:50:00,74.3,46.6,29.89,West,260,14.5,-999.0,36,0.00,,,0.00,SSEC-RIG,2013-06-17 04:50:00,
2013-06-16 23:55:00,74.3,46.7,29.89,WSW,258,15.1,16.1,37,0.00,,,0.00,SSEC-RIG,2013-06-17 04:55:00,